Total_Precipitation_Accumulation
6.08 3.85 3.32 3.56 2.42 2.36 3.31 3.30 2.77 1.74 1.34 1.10 1.21 0.88 0.76 0.65 0.49 0.41 0.33 0.33 0.49 0.53 0.65 0.66 0.55 0.39 0.31 0.27 0.29 0.36 0.43 0.57
7.11 5.14 3.17 1.75 2.48 2.23 2.23 3.05 3.65 2.35 1.86 1.64 1.27 1.13 0.90 0.55 0.39 0.45 0.62 0.57 0.40 0.29 0.41 0.48 0.45 0.32 0.25 0.30 0.36 0.59 0.43 0.51
6.64 6.40 3.97 2.72 2.47 2.35 1.79 1.70 2.68 3.59 2.42 1.90 1.60 0.86 0.80 0.56 0.53 0.53 0.59 0.61 0.62 0.54 0.48 0.41 0.36 0.31 0.30 0.55 0.45 0.40 0.47 0.42
2.92 3.25 3.02 2.32 2.98 3.04 1.70 1.38 1.16 2.63 2.88 2.05 1.44 0.89 0.81 0.74 0.50 0.53 0.61 0.52 0.65 0.66 0.68 0.52 0.39 0.21 0.20 0.27 0.30 0.67 0.71 0.76
1.24 1.51 1.46 1.49 1.99 1.60 1.48 1.24 1.05 1.34 2.51 1.96 1.23 0.86 0.78 1.00 0.49 0.47 0.85 0.75 0.68 0.58 0.44 0.37 0.34 0.29 0.16 0.11 0.23 0.27 0.39 0.70
1.01 0.80 1.00 1.16 1.41 1.42 1.09 1.09 0.98 0.93 1.72 1.79 1.21 0.81 0.52 0.63 0.31 0.40 0.94 0.89 0.57 0.34 0.21 0.24 0.32 0.38 0.25 0.27 0.15 0.26 0.29 0.53
0.96 0.77 0.80 0.83 0.68 0.80 0.77 0.71 0.93 0.83 0.88 1.46 1.18 0.70 0.37 0.38 0.36 0.37 0.75 0.72 0.77 0.38 0.21 0.26 0.29 0.35 0.33 0.23 0.07 0.22 0.27 0.48
1.00 1.21 0.86 0.88 0.65 0.61 0.60 0.55 0.78 1.02 0.82 1.02 1.34 0.73 0.43 0.43 0.40 0.32 0.49 0.54 0.62 0.51 0.20 0.26 0.29 0.25 0.29 0.20 0.07 0.19 0.28 0.44
1.14 1.62 1.19 1.05 0.62 0.67 0.66 0.70 0.68 0.80 0.92 1.14 1.19 0.80 0.56 0.44 0.45 0.34 0.32 0.38 0.35 0.47 0.41 0.36 0.31 0.29 0.25 0.22 0.11 0.14 0.17 0.30
1.32 1.42 0.99 1.08 0.84 0.95 1.34 0.75 0.51 0.66 0.78 0.91 0.96 0.90 0.65 0.58 0.48 0.36 0.40 0.35 0.22 0.32 0.23 0.30 0.35 0.30 0.23 0.16 0.11 0.06 0.06 0.18
0.89 0.98 0.99 1.33 1.64 1.71 1.23 0.67 0.45 0.69 0.65 0.67 0.86 1.15 0.70 0.59 0.54 0.40 0.44 0.42 0.23 0.19 0.13 0.17 0.27 0.31 0.26 0.24 0.16 0.07 0.06 0.13
0.76 0.84 1.33 1.82 1.57 0.78 0.47 0.51 0.52 0.64 0.56 0.60 0.78 1.38 1.01 0.74 0.70 0.58 0.52 0.43 0.32 0.21 0.14 0.18 0.20 0.21 0.26 0.28 0.20 0.12 0.09 0.17
0.70 0.86 0.73 0.54 0.42 0.41 0.38 0.41 0.33 0.38 0.37 0.55 0.72 1.14 1.29 0.91 0.77 0.67 0.56 0.35 0.22 0.15 0.15 0.18 0.27 0.26 0.36 0.41 0.25 0.18 0.11 0.16
0.41 0.33 0.20 0.20 0.17 0.28 0.34 0.37 0.30 0.25 0.32 0.43 1.00 1.07 1.11 1.01 0.87 0.61 0.46 0.42 0.41 0.29 0.16 0.13 0.24 0.32 0.26 0.30 0.31 0.44 0.17 0.10
0.09 0.15 0.10 0.21 0.23 0.23 0.28 0.41 0.48 0.41 0.38 0.41 0.73 0.79 0.86 0.82 0.94 0.78 0.56 0.51 0.53 0.44 0.25 0.15 0.20 0.30 0.21 0.26 0.30 0.31 0.25 0.08
0.12 0.13 0.19 0.21 0.33 0.13 0.26 0.19 0.21 0.21 0.26 0.28 0.51 0.64 0.70 0.73 0.66 0.74 0.51 0.49 0.50 0.54 0.47 0.38 0.43 0.48 0.26 0.12 0.11 0.20 0.29 0.33
0.09 0.13 0.25 0.27 0.26 0.20 0.34 0.29 0.20 0.18 0.26 0.35 0.46 0.62 0.57 0.76 0.88 0.79 0.58 0.50 0.51 0.53 0.59 0.58 0.63 0.54 0.31 0.24 0.16 0.22 0.21 0.23
0.12 0.13 0.13 0.29 0.35 0.39 0.47 0.61 0.44 0.26 0.21 0.23 0.34 0.53 0.48 0.71 1.08 1.24 0.91 0.63 0.69 0.64 0.68 0.76 0.81 0.83 0.58 0.54 0.39 0.32 0.27 0.36
0.18 0.10 0.16 0.23 0.41 0.54 0.58 1.06 1.21 1.11 0.69 0.39 0.50 0.58 0.46 0.49 0.85 1.29 1.02 0.84 0.79 0.99 0.98 0.90 1.07 1.08 1.14 0.94 0.75 0.63 0.42 0.45
0.38 0.21 0.27 0.31 0.46 0.71 0.73 0.78 1.03 1.73 1.87 1.90 1.51 1.05 0.82 0.77 0.96 1.22 1.40 1.17 0.86 0.96 1.19 1.27 1.33 1.49 1.39 1.27 0.97 0.69 0.65 0.76